| time (UTC) | temp F | wind direction | speed MPH | gust MPH | rain 1hr in | rain 24hr in | rain mn in | humidity % | barometer mb |
| 20260505124723 | 40 | 41 | 15.0 | 20.0 | 0.00 | 0.00 | 0.00 | 67 | 995.6 |
| 20260505122723 | 40 | 32 | 14.0 | 19.0 | 0.00 | 0.00 | 0.00 | 68 | 995.5 |
| 20260505120723 | 41 | 40 | 16.0 | 23.0 | 0.00 | 0.00 | 0.00 | 62 | 995.1 |
| 20260505114723 | 42 | 45 | 15.0 | 22.0 | 0.00 | 0.00 | 0.00 | 58 | 994.9 |
| 20260505112723 | 41 | 46 | 14.0 | 20.0 | 0.00 | 0.00 | 0.00 | 57 | 994.7 |
| 20260505110723 | 42 | 40 | 18.0 | 23.0 | 0.00 | 0.00 | 0.00 | 53 | 994.3 |
| 20260505100723 | 42 | 13 | 16.0 | 21.0 | 0.00 | 0.00 | 0.00 | 59 | 993.9 |
| 20260505094722 | 42 | 14 | 13.0 | 20.0 | 0.00 | 0.00 | 0.00 | 56 | 993.9 |
| 20260505092722 | 41 | 28 | 12.0 | 17.0 | 0.00 | 0.00 | 0.00 | 58 | 993.9 |
| 20260505090723 | 40 | 23 | 13.0 | 20.0 | 0.00 | 0.00 | 0.00 | 58 | 994.0 |
| 20260505084724 | 40 | 22 | 13.0 | 19.0 | 0.00 | 0.00 | 0.00 | 58 | 994.0 |
| 20260505082723 | 39 | 11 | 14.0 | 20.0 | 0.00 | 0.00 | 0.00 | 59 | 993.9 |
| 20260505080723 | 40 | 35 | 14.0 | 19.0 | 0.00 | 0.00 | 0.00 | 59 | 993.9 |
| 20260505074722 | 38 | 13 | 9.0 | 13.0 | 0.00 | 0.00 | 0.00 | 61 | 993.8 |
| 20260505072722 | 38 | 17 | 14.0 | 20.0 | 0.00 | 0.00 | 0.00 | 66 | 993.9 |
| 20260505070722 | 37 | 20 | 10.0 | 17.0 | 0.00 | 0.00 | 0.00 | 68 | 993.8 |
| 20260505064722 | 37 | 2 | 10.0 | 14.0 | 0.00 | 0.00 | 0.00 | 76 | 993.9 |
| 20260505062722 | 37 | 10 | 9.0 | 12.0 | 0.00 | 0.00 | 0.00 | 78 | 993.8 |
| 20260505060722 | 37 | 19 | 7.0 | 9.0 | 0.00 | 0.00 | 0.00 | 79 | 993.8 |
| 20260505054722 | 37 | 1 | 7.0 | 12.0 | 0.00 | 0.00 | 0.00 | 84 | 993.8 |
| 20260505052722 | 36 | 354 | 7.0 | 10.0 | 0.00 | 0.00 | 0.00 | 89 | 994.0 |
| 20260505050721 | 35 | 20 | 5.0 | 7.0 | 0.00 | 0.00 | 0.00 | 97 | 994.3 |
| 20260505040721 | 33 | 322 | 2.0 | 4.0 | 0.00 | 0.00 | 0.00 | 98 | 994.7 |
| 20260505034722 | 32 | 248 | 3.0 | 4.0 | 0.00 | 0.00 | 0.00 | 98 | 994.8 |
| 20260505032721 | 32 | 253 | 3.0 | 4.0 | 0.00 | 0.00 | 0.00 | 98 | 994.9 |
| 20260505030722 | 32 | 272 | 2.0 | 2.0 | 0.00 | 0.00 | 0.00 | 98 | 995.0 |
| 20260505024722 | 32 | 0.0 | 1.0 | 0.00 | 0.00 | 0.00 | 98 | 995.2 | |
| 20260505022721 | 32 | 345 | 1.0 | 2.0 | 0.00 | 0.00 | 0.00 | 98 | 995.2 |
| 20260505020722 | 31 | 170 | 1.0 | 3.0 | 0.00 | 0.00 | 0.00 | 98 | 995.3 |
| 20260505014722 | 32 | 220 | 2.0 | 3.0 | 0.00 | 0.00 | 0.00 | 98 | 995.4 |
| 20260505012721 | 30 | 6 | 1.0 | 2.0 | 0.00 | 0.00 | 0.00 | 98 | 995.6 |
| 20260505010722 | 30 | 59 | 1.0 | 2.0 | 0.00 | 0.00 | 0.00 | 98 | 995.7 |
| 20260505004721 | 30 | 80 | 1.0 | 2.0 | 0.00 | 0.00 | 0.00 | 98 | 995.9 |
| 20260505002721 | 31 | 224 | 2.0 | 2.0 | 0.00 | 0.00 | 0.00 | 99 | 995.8 |
| 20260505000721 | 31 | 102 | 2.0 | 3.0 | 0.00 | 0.00 | 0.00 | 97 | 995.9 |
| 20260504234722 | 33 | 149 | 3.0 | 5.0 | 0.00 | 0.00 | 0.00 | 96 | 995.9 |
| 20260504232722 | 33 | 169 | 2.0 | 4.0 | 0.00 | 0.00 | 0.00 | 95 | 996.1 |
| 20260504230721 | 33 | 340 | 3.0 | 5.0 | 0.00 | 0.00 | 0.00 | 96 | 996.2 |
| 20260504224721 | 35 | 169 | 6.0 | 9.0 | 0.00 | 0.00 | 0.00 | 95 | 996.4 |
| 20260504222721 | 35 | 210 | 1.0 | 3.0 | 0.00 | 0.00 | 0.00 | 94 | 996.4 |
| 20260504220721 | 35 | 250 | 2.0 | 3.0 | 0.00 | 0.00 | 0.00 | 95 | 996.6 |
| 20260504214721 | 35 | 223 | 4.0 | 6.0 | 0.00 | 0.00 | 0.00 | 93 | 996.8 |
| 20260504212721 | 36 | 232 | 8.0 | 10.0 | 0.00 | 0.00 | 0.00 | 90 | 996.9 |
| 20260504210721 | 37 | 218 | 8.0 | 11.0 | 0.00 | 0.00 | 0.00 | 86 | 997.1 |
| 20260504204720 | 38 | 207 | 11.0 | 16.0 | 0.00 | 0.00 | 0.00 | 79 | 997.3 |
| 20260504202720 | 39 | 201 | 10.0 | 15.0 | 0.00 | 0.00 | 0.00 | 73 | 997.2 |
| 20260504200720 | 40 | 211 | 13.0 | 18.0 | 0.00 | 0.00 | 0.00 | 63 | 997.0 |
| 20260504194720 | 41 | 189 | 10.0 | 17.0 | 0.00 | 0.00 | 0.00 | 56 | 996.8 |
| 20260504192720 | 40 | 158 | 5.0 | 6.0 | 0.00 | 0.00 | 0.00 | 50 | 996.9 |
| 20260504190720 | 41 | 150 | 5.0 | 6.0 | 0.00 | 0.00 | 0.00 | 47 | 996.9 |
| 20260504184719 | 43 | 146 | 5.0 | 8.0 | 0.00 | 0.00 | 0.00 | 42 | 997.0 |
| 20260504182720 | 44 | 160 | 5.0 | 6.0 | 0.00 | 0.00 | 0.00 | 40 | 997.0 |
| 20260504180719 | 45 | 185 | 5.0 | 6.0 | 0.00 | 0.00 | 0.00 | 39 | 997.0 |
| 20260504174720 | 46 | 208 | 9.0 | 13.0 | 0.00 | 0.00 | 0.00 | 38 | 997.0 |
| 20260504172719 | 47 | 183 | 6.0 | 14.0 | 0.00 | 0.00 | 0.00 | 34 | 997.0 |
| 20260504170719 | 46 | 238 | 6.0 | 9.0 | 0.00 | 0.00 | 0.00 | 32 | 997.1 |
| 20260504150719 | 48 | 204 | 12.0 | 18.0 | 0.00 | 0.00 | 0.00 | 29 | 997.7 |